Weather History for KAUH - June, 2013

Change the Weather History Date:

Sunday, June 23, 2013

  Actual Average (KGRI) Record (KGRI)
Temperature  
Mean Temperature 71 °F 74 °F  
Max Temperature 80 °F 86 °F 105 °F (1937)
Min Temperature 62 °F 62 °F 45 °F (1920)
Degree Days  
Heating Degree Days 0 0  
Month to date heating degree days 21  
Since 1 June heating degree days 21  
Since 1 July heating degree days 6196  
Cooling Degree Days 6 9  
Month to date cooling degree days 143  
Year to date cooling degree days 208  
Since 1 June cooling degree days 143  
Growing Degree Days 21 (Base 50)    
Moisture  
Dew Point 64 °F    
Average Humidity 77    
Maximum Humidity 96    
Minimum Humidity 49    
Precipitation  
Precipitation 0.16 in 0.13 in 3.09 in (1968)
Month to date precipitation 3.36  
Year to date precipitation 13.31  
Snow  
Snow 0.00 in 0.00 in - ()
Month to date snowfall 0.0  
Since 1 June snowfall 0.0  
Since 1 July snowfall 29.0  
Snow Depth -    
Sea Level Pressure  
Sea Level Pressure 29.87 in    
Wind  
Wind Speed 12 mph (East)    
Max Wind Speed 26 mph    
Max Gust Speed 37 mph    
Visibility 10 miles    
Events Rain , Thunderstorm    
T = Trace of Precipitation, MM = Missing Value Source: NWS Daily Summary

Daily Weather History Graph

Daily Weather History Graph

Search for Another Location

Airport or City:

Trip Planner

Search our weather history database for the weather conditions in past years. The results will help you decide how hot, cold, wet, or windy it might be!

Date:

Astronomy

Jun. 23, 2013 Rise Set
Actual Time 6:00 AM CDT 9:07 PM CDT
Civil Twilight 5:27 AM CDT 9:41 PM CDT
Nautical Twilight 4:44 AM CDT 10:24 PM CDT
Astronomical Twilight 3:53 AM CDT 11:14 PM CDT
Moon 9:20 PM CDT (6/23) 6:20 AM CDT (6/23)
Length of Visible Light 16h 13m
Length of Day
15h 06m
Full, 100% of the Moon is Illuminated
Jun 23
Full
Jun 29
Last Quarter
Jul 8
New
Jul 15
First Quarter
Jul 22
Full

Hourly Weather History & Observations

Time (CDT) Temp. Heat Index Dew Point Humidity Pressure Visibility Wind Dir Wind Speed Gust Speed Precip Events Conditions
12:15 AM 78.8 °F - 63.1 °F 59% 29.75 in 10.0 mi SSE 18.4 mph 23.0 mph N/A   Clear
12:35 AM 78.4 °F - 63.0 °F 59% 29.76 in 10.0 mi SSE 17.3 mph 24.2 mph N/A   Clear
12:55 AM 77.9 °F - 62.4 °F 59% 29.75 in 10.0 mi SSE 19.6 mph 25.3 mph N/A   Clear
1:15 AM 77.5 °F - 61.9 °F 58% 29.75 in 10.0 mi SSE 18.4 mph 25.3 mph N/A   Clear
1:35 AM 77.4 °F - 61.7 °F 58% 29.75 in 10.0 mi South 16.1 mph 24.2 mph N/A   Clear
1:55 AM 77.4 °F - 61.7 °F 58% 29.78 in 10.0 mi SSW 11.5 mph 18.4 mph N/A   Clear
2:15 AM 77.2 °F - 62.2 °F 60% 29.86 in 10.0 mi NW 10.4 mph 20.7 mph N/A   Scattered Clouds
2:35 AM 74.7 °F - 54.5 °F 49% 29.86 in 10.0 mi North 23.0 mph 33.4 mph N/A Thunderstorm Thunderstorm
2:55 AM 71.4 °F - 54.5 °F 55% 29.88 in 10.0 mi North 23.0 mph 35.7 mph N/A Thunderstorm Overcast
3:15 AM 66.6 °F - 57.9 °F 74% 29.90 in 10.0 mi North 26.5 mph 36.8 mph N/A Thunderstorm Overcast
3:35 AM 63.0 °F - 60.3 °F 91% 29.89 in 4.0 mi NNE 20.7 mph 31.1 mph 0.07 in Rain , Thunderstorm Rain
3:55 AM 63.0 °F - 60.8 °F 93% 29.92 in 10.0 mi NNE 10.4 mph 24.2 mph 0.08 in Rain Light Rain
4:15 AM 62.8 °F - 61.0 °F 94% 29.95 in 10.0 mi North 12.7 mph - 0.01 in Rain Light Rain
4:35 AM 62.8 °F - 60.8 °F 93% 29.95 in 7.0 mi North 13.8 mph 25.3 mph 0.04 in Rain Rain
4:55 AM 62.2 °F - 61.2 °F 96% 29.95 in 10.0 mi NE 9.2 mph - 0.07 in Rain , Thunderstorm Light Thunderstorms and Rain
5:15 AM 62.4 °F - 60.8 °F 94% 29.94 in 10.0 mi NE 4.6 mph - 0.01 in Rain Light Rain
5:35 AM 62.2 °F - 61.2 °F 96% 29.87 in 10.0 mi ENE 12.7 mph - 0.01 in Rain Light Rain
5:55 AM 62.2 °F - 61.0 °F 96% 29.84 in 10.0 mi East 16.1 mph - 0.01 in   Scattered Clouds
6:15 AM 62.2 °F - 61.0 °F 96% 29.82 in 10.0 mi East 12.7 mph 25.3 mph N/A   Scattered Clouds
6:35 AM 63.0 °F - 60.4 °F 91% 29.84 in 10.0 mi SE 15.0 mph - N/A   Clear
6:55 AM 62.6 °F - 60.8 °F 94% 29.78 in 10.0 mi SE 21.9 mph - N/A   Clear
7:15 AM 62.8 °F - 60.6 °F 93% 29.78 in 10.0 mi SE 16.1 mph 23.0 mph N/A   Clear
7:35 AM 62.8 °F - 61.0 °F 94% 29.80 in 10.0 mi SE 10.4 mph 18.4 mph N/A   Clear
7:55 AM 63.5 °F - 61.0 °F 91% 29.83 in 10.0 mi ENE 4.6 mph - N/A   Clear
8:15 AM 64.4 °F - 61.0 °F 89% 29.86 in 10.0 mi ESE 9.2 mph - N/A   Clear
8:35 AM 64.4 °F - 61.7 °F 91% 29.86 in 10.0 mi SE 9.2 mph - N/A   Clear
8:55 AM 64.6 °F - 62.1 °F 92% 29.87 in 10.0 mi SSE 13.8 mph - N/A   Clear
9:15 AM 65.5 °F - 62.6 °F 90% 29.90 in 10.0 mi SSE 6.9 mph - N/A   Clear
9:35 AM 66.6 °F - 61.9 °F 85% 29.92 in 10.0 mi Calm Calm - N/A   Clear
9:55 AM 67.3 °F - 62.1 °F 83% 29.92 in 10.0 mi Calm Calm - N/A   Clear
10:15 AM 69.3 °F - 63.3 °F 81% 29.92 in 10.0 mi SSE 9.2 mph - N/A   Clear
10:35 AM 69.8 °F - 63.0 °F 79% 29.93 in 10.0 mi SE 6.9 mph - N/A   Clear
10:55 AM 70.2 °F - 63.0 °F 78% 29.92 in 10.0 mi SE 5.8 mph - N/A   Mostly Cloudy
11:15 AM 71.1 °F - 63.5 °F 77% 29.92 in 10.0 mi SSE 4.6 mph - N/A   Scattered Clouds
11:35 AM 72.1 °F - 63.3 °F 74% 29.92 in 10.0 mi ESE 8.1 mph - N/A   Scattered Clouds
11:55 AM 72.1 °F - 62.6 °F 72% 29.92 in 10.0 mi ESE 4.6 mph - N/A   Scattered Clouds
12:15 PM 73.6 °F - 64.2 °F 72% 29.92 in 10.0 mi South 3.5 mph - N/A   Scattered Clouds
12:35 PM 73.9 °F - 64.0 °F 71% 29.92 in 10.0 mi ESE 4.6 mph - N/A   Mostly Cloudy
12:55 PM 74.3 °F - 64.6 °F 72% 29.92 in 10.0 mi Calm Calm - N/A   Overcast
1:15 PM 74.5 °F - 64.8 °F 72% 29.91 in 10.0 mi Calm Calm - N/A   Overcast
1:35 PM 75.9 °F - 65.1 °F 69% 29.91 in 10.0 mi Calm Calm - N/A   Mostly Cloudy
1:55 PM 76.3 °F - 65.8 °F 70% 29.90 in 10.0 mi Calm Calm - N/A   Mostly Cloudy
2:15 PM 77.0 °F - 65.8 °F 68% 29.90 in 10.0 mi East 5.8 mph - N/A   Scattered Clouds
2:35 PM 77.9 °F - 66.2 °F 67% 29.89 in 10.0 mi Calm Calm - N/A   Scattered Clouds
2:55 PM 78.1 °F - 65.8 °F 66% 29.89 in 10.0 mi Calm Calm - N/A   Scattered Clouds
3:15 PM 79.0 °F - 66.4 °F 65% 29.88 in 10.0 mi Calm Calm - N/A   Mostly Cloudy
3:35 PM 79.2 °F - 66.4 °F 65% 29.88 in 10.0 mi NNE 4.6 mph - N/A   Overcast
3:55 PM 79.2 °F - 65.8 °F 64% 29.88 in 10.0 mi Calm Calm - N/A   Mostly Cloudy
4:15 PM 79.2 °F - 66.4 °F 65% 29.88 in 10.0 mi NNE 5.8 mph - N/A   Mostly Cloudy
4:35 PM 79.5 °F - 67.1 °F 66% 29.88 in 10.0 mi North 6.9 mph - N/A   Mostly Cloudy
4:55 PM 80.1 °F 82.3 °F 66.9 °F 64% 29.87 in 10.0 mi NE 9.2 mph - N/A   Scattered Clouds
5:15 PM 79.5 °F - 66.4 °F 64% 29.87 in 10.0 mi NE 5.8 mph - N/A   Scattered Clouds
5:35 PM 79.2 °F - 66.9 °F 66% 29.87 in 10.0 mi NE 9.2 mph - N/A   Overcast
5:55 PM 79.7 °F - 66.7 °F 64% 29.87 in 10.0 mi NE 6.9 mph - N/A   Scattered Clouds
6:15 PM 78.8 °F - 67.1 °F 67% 29.87 in 10.0 mi ENE 6.9 mph - N/A   Mostly Cloudy
6:35 PM 78.4 °F - 67.1 °F 68% 29.87 in 10.0 mi ENE 9.2 mph - N/A   Overcast
6:55 PM 78.4 °F - 67.3 °F 68% 29.87 in 10.0 mi ENE 10.4 mph - N/A   Mostly Cloudy
7:15 PM 78.3 °F - 67.3 °F 69% 29.87 in 10.0 mi East 9.2 mph - N/A   Scattered Clouds
7:35 PM 77.9 °F - 67.6 °F 71% 29.87 in 10.0 mi East 10.4 mph - N/A   Clear
7:55 PM 77.4 °F - 67.8 °F 72% 29.87 in 10.0 mi East 9.2 mph - N/A   Clear
8:15 PM 76.6 °F - 68.4 °F 75% 29.87 in 10.0 mi East 5.8 mph - N/A   Clear
8:35 PM 75.7 °F - 68.9 °F 79% 29.87 in 10.0 mi ENE 5.8 mph - N/A   Clear
8:55 PM 74.5 °F - 68.9 °F 83% 29.87 in 10.0 mi ENE 5.8 mph - N/A   Clear
9:15 PM 73.4 °F - 68.9 °F 86% 29.87 in 10.0 mi ENE 5.8 mph - N/A   Clear
9:35 PM 72.5 °F - 68.9 °F 88% 29.87 in 10.0 mi ENE 5.8 mph - N/A   Clear
9:55 PM 72.1 °F - 69.3 °F 91% 29.88 in 10.0 mi East 8.1 mph - N/A   Clear
10:15 PM 72.0 °F - 69.8 °F 93% 29.89 in 10.0 mi East 9.2 mph - N/A   Clear
10:35 PM 72.3 °F - 69.8 °F 92% 29.89 in 10.0 mi East 11.5 mph 17.3 mph N/A   Clear
10:55 PM 71.6 °F - 69.6 °F 93% 29.90 in 10.0 mi East 9.2 mph - N/A   Clear
11:15 PM 72.0 °F - 69.8 °F 93% 29.89 in 10.0 mi East 11.5 mph - N/A   Mostly Cloudy
11:35 PM 71.6 °F - 69.1 °F 92% 29.89 in 10.0 mi East 11.5 mph - N/A   Scattered Clouds
11:55 PM 71.1 °F - 69.1 °F 93% 29.88 in 10.0 mi East 9.2 mph - N/A   Clear